Tracking 29892 objects as of 21-Nov-2024
HD Live streaming from Space Station
objects crossing your sky now

STARLINK-32435

Track STARLINK-32435 now!
10-day predictions
STARLINK-32435 is classified as:


NORAD ID: 61259
Int'l Code: 2024-175S
Perigee: 454.1 km
Apogee: 454.8 km
Inclination: 53.2 °
Period: 93.5 minutes
Semi major axis: 6825 km
RCS: Unknown
Launch date: September 25, 2024
Source: United States (US)
Launch site: AIR FORCE WESTERN TEST RANGE (AFWTR)
Your satellite tracking list
Your tracking list is empty




NASA's NSSDC Master Catalog

Two Line Element Set (TLE):
1 61259U 24175S   24325.77512132 -.00001721  00000-0 -33095-4 0  9993
2 61259  53.1612 240.4127 0000530 342.5877  17.5110 15.39599178  8827
Source of the keplerian elements: AFSPC